[[{"header":{"parameterUnit":"m.s-1","parameterCategory":1,"la1":30.2991,"la2":30.254,"lo1":-89.0895,"lo2":-89.0444,"dy":0.0017,"dx":0.0017,"nx":28,"ny":28,"refTime":"2024-10-05T21:00:00:Z","depth":0,"parameterNumber":2,"parameterNumberName":"U-component_of_WINDS"},"data":[0,0,0,0,0,0,0,0,0,0,0,0,0,0,0,0,0,0,0,0,0,0,0,0,0,0,0,0,0,0,0,0,0,0,0,0,0,0,0,0,0,0,0,0,0,0,0,0,0,0,0,0,0,0,0,0,0,0,-4.1711,-4.1711,0,-4.1749,-4.1749,-4.175,-4.1654,-4.1651,-4.1648,-4.1645,-4.1684,-4.1688,-4.1691,0,0,0,0,0,0,0,0,0,0,0,0,0,-4.1555,-4.1558,-4.1711,-4.1711,-4.1712,-4.1749,-4.1749,-4.175,-4.1654,-4.165,-4.1647,-4.1643,-4.1683,-4.1687,-4.1692,0,0,0,0,0,0,0,0,0,0,0,0,0,-4.1611,-4.1559,-4.1711,-4.1668,-4.1665,-4.1749,-4.1749,-4.175,-4.1655,-4.165,-4.1646,-4.1642,-4.1681,-4.1687,-4.1692,-4.1819,0,0,-4.171,-4.1713,0,0,0,0,0,0,0,0,-4.1608,-4.1617,-4.1674,-4.1671,-4.1668,-4.1692,-4.1709,-4.1773,-4.1656,-4.1659,-4.1645,-4.1639,-4.169,-4.1695,-4.1712,-4.1821,-4.1822,-4.1711,-4.1714,-4.1717,-4.1718,0,0,0,0,0,0,0,-4.1604,-4.1615,-4.1726,-4.1675,-4.1671,-4.1648,-4.1651,-4.1721,-4.1699,-4.1658,-4.1651,-4.1657,-4.1688,-4.1707,-4.1712,-4.1823,-4.171,-4.1716,-4.1719,-4.1721,-4.204,-4.2045,0,0,0,0,0,0,-4.1606,-4.1612,-4.1724,-4.1727,-4.1626,-4.1654,-4.1657,-4.1689,-4.1698,-4.1695,-4.1661,-4.1652,-4.1699,-4.1706,-4.1713,-4.1864,-4.1717,-4.1722,-4.1725,-4.2035,-4.2041,-4.2047,0,0,0,0,0,0,-4.1603,-4.1617,-4.1723,-4.1668,-4.1679,-4.1662,-4.1698,-4.1692,-4.1711,-4.17,-4.1696,-4.1684,-4.1696,-4.1705,-4.1794,-4.1864,-4.1725,-4.173,-4.2029,-4.2037,-4.2044,-4.2167,0,0,0,0,0,0,-4.1599,-4.1616,-4.1664,-4.1669,-4.1683,-4.1803,-4.1702,-4.1696,-4.1721,-4.171,-4.1721,-4.1719,-4.1693,-4.1786,-4.18,-4.187,-4.1734,-4.2023,-4.2033,-4.2042,-4.2156,-4.2177,-4.2195,0,0,0,0,0,-4.1593,-4.1696,-4.1667,-4.1681,-4.1742,-4.1807,-4.1815,-4.1783,-4.1727,-4.1775,-4.1769,-4.1719,-4.1854,-4.1796,-4.1811,-4.1883,-4.2018,-4.203,-4.2041,-4.2147,-4.2173,-4.2195,0,0,0,0,0,0,-4.1699,-4.1696,-4.1663,-4.1771,-4.179,-4.1791,-4.1851,-4.1811,-4.1846,-4.1835,-4.1793,-4.1797,-4.1894,-4.1897,-4.1832,-4.2008,-4.1927,-4.1942,-4.2003,-4.2027,-4.2046,-4.2045,-4.1739,0,0,0,0,0,-4.1735,-4.1788,-4.1782,-4.1878,-4.1889,-4.1869,-4.1896,-4.187,-4.1888,-4.1896,-4.1896,-4.1916,-4.1963,-4.1994,-4.2037,-4.2155,-4.2158,-4.2213,-4.2233,-4.2249,-4.2263,-4.2328,-4.2353,-4.2084,-4.2084,-4.2083,0,0,-4.1809,-4.1814,-4.185,-4.1899,-4.1911,-4.1968,-4.1876,-4.194,-4.1982,-4.1905,-4.199,-4.1991,-4.201,-4.2115,-4.2162,-4.2121,-4.2337,-4.2263,-4.2276,-4.2281,-4.2342,-4.2368,-4.2391,-4.2091,-4.209,-4.2089,0,0,-4.1974,-4.1983,-4.2065,-4.2079,-4.2098,-4.2084,-4.2104,-4.2111,-4.2109,-4.2193,-4.2138,-4.2187,-4.2268,-4.2285,-4.2305,-4.2478,-4.2434,-4.2493,-4.2596,-4.2661,-4.2682,-4.2701,-4.2765,-4.2789,-4.2507,-4.2507,-4.2507,0,-4.2065,-4.2148,-4.2111,-4.218,-4.2204,-4.2138,-4.2221,-4.2236,-4.2269,-4.2287,-4.2241,-4.2343,-4.2351,-4.2461,-4.2504,-4.252,-4.2543,-4.2493,-4.2682,-4.27,-4.2717,-4.2778,-4.2802,-4.2514,-4.2513,-4.2513,-4.2512,0,-4.226,-4.2319,-4.2382,-4.2417,-4.2447,-4.2523,-4.2498,-4.2534,-4.2505,-4.2496,-4.2584,-4.2592,-4.2636,-4.2659,-4.2631,-4.2766,-4.274,-4.2689,-4.2607,-4.2751,-4.2808,-4.2831,-4.2525,-4.2522,-4.252,-4.2518,0,0,-4.2493,-4.2507,-4.2531,-4.2547,-4.2564,-4.2609,-4.2682,-4.2726,-4.2759,-4.2783,-4.2844,-4.2915,-4.2869,-4.2891,-4.2864,-4.292,-4.3061,-4.2862,-4.2861,-4.2901,-4.3212,-4.3253,-4.328,-4.303,-4.3035,-4.3038,-4.3211,0,-4.2659,-4.2785,-4.2755,-4.2879,-4.2935,-4.2873,-4.2936,-4.2954,-4.2948,-4.2994,-4.2986,-4.3039,-4.2971,-4.2985,-4.3037,-4.3032,-4.3123,-4.3019,-4.3089,-4.3092,-4.3089,-4.3309,-4.3352,-4.3515,-4.3233,-4.3237,-4.3239,0,-4.2869,-4.2903,-4.3034,-4.3044,-4.3066,-4.3124,-4.3163,-4.3207,-4.3227,-4.3218,-4.3244,-4.3207,-4.328,-4.3196,-4.3297,-4.3228,-4.3254,-4.3256,-4.3262,-4.3269,-4.3176,-4.3325,-4.3566,-4.3592,-4.3273,-4.3271,-4.3268,0,-4.303,-4.3108,-4.3197,-4.3212,-4.3226,-4.3268,-4.3276,-4.3291,-4.332,-4.3353,-4.3372,-4.3413,-4.3437,-4.347,-4.3446,-4.3386,-4.3552,-4.3465,-4.3548,-4.355,-4.3588,-4.3586,-4.3839,-4.3601,-4.3601,-4.36,-4.36,0,-4.322,-4.3303,-4.327,-4.3325,-4.3417,-4.3381,-4.3473,-4.3474,-4.3488,-4.3542,-4.349,-4.3543,-4.3506,-4.3555,-4.3536,-4.3625,-4.3635,-4.3631,-4.3626,-4.3638,-4.3639,-4.3656,-4.3645,-4.3607,-4.3605,-4.3604,-4.3603,0,-4.3416,-4.3397,-4.349,-4.3496,-4.3499,-4.3567,-4.3572,-4.3623,-4.3613,-4.3683,-4.3697,-4.3682,-4.3738,-4.3716,-4.3775,-4.3762,-4.3876,-4.3854,-4.387,-4.3866,-4.3951,-4.3944,-4.4226,-4.4262,-4.3999,-4.4001,-4.4003,0,-4.3539,-4.3602,-4.3615,-4.3648,-4.366,-4.3713,-4.3743,-4.371,-4.3743,-4.3771,-4.382,-4.3871,-4.3911,-4.4003,-4.3998,-4.4043,-4.4024,-4.4119,-4.403,-4.4041,-4.4028,-4.4026,-4.4033,-4.4138,-4.4141,-4.4143,-4.4145,0,-4.3762,-4.375,-4.3794,-4.3837,-4.3874,-4.3906,-4.3933,-4.3963,-4.3932,-4.3972,-4.4029,-4.406,-4.412,-4.4173,-4.4214,-4.4221,-4.418,-4.4173,-4.4195,-4.4209,-4.4217,-4.4217,-4.3922,-4.4167,-4.4165,-4.4164,-4.4162,-4.4161,-4.3927,-4.3981,-4.3999,-4.4051,-4.4068,-4.4095,-4.4145,-4.4141,-4.4188,-4.4236,-4.4213,-4.428,-4.4299,-4.435,-4.4364,-4.4416,-4.4379,-4.441,-4.4419,-4.4428,-4.444,-4.4207,-4.4423,-4.4422,-4.4422,-4.4421,-4.4421,0,-4.4149,-4.4157,-4.4206,-4.4246,-4.4288,-4.4244,-4.4272,-4.431,-4.437,-4.4391,-4.4431,-4.4498,-4.4549,-4.4548,-4.4595,-4.4637,-4.4619,-4.4651,-4.4649,-4.4652,-4.4469,-4.4447,-4.4665,-4.4665,-4.4665,-4.4665,-4.4665,-4.4665,-4.4269,-4.4359,-4.435,-4.4448,-4.4456,-4.4521,-4.4541,-4.4567,-4.4584,-4.4661,-4.4703,-4.4702,-4.4715,-4.4763,-4.4808,-4.4806,-4.4827,-4.4867,-4.4859,-4.4689,-4.4664,-4.4641,-4.462,-4.4871,-4.4872,-4.5037,-4.5039,-4.504]},{"header":{"parameterUnit":"m.s-1","parameterCategory":1,"la1":30.2991,"la2":30.254,"lo1":-89.0895,"lo2":-89.0444,"dy":0.0017,"dx":0.0017,"nx":28,"ny":28,"refTime":"2024-10-05T21:00:00:Z","depth":0,"parameterNumber":3,"parameterNumberName":"V-component_of_WINDS"},"data":[0,0,0,0,0,0,0,0,0,0,0,0,0,0,0,0,0,0,0,0,0,0,0,0,0,0,0,0,0,0,0,0,0,0,0,0,0,0,0,0,0,0,0,0,0,0,0,0,0,0,0,0,0,0,0,0,0,0,-2.902,-2.902,0,-2.9033,-2.9033,-2.9034,-2.8988,-2.8987,-2.8985,-2.8984,-2.8996,-2.8998,-2.9,0,0,0,0,0,0,0,0,0,0,0,0,0,-2.8954,-2.8955,-2.902,-2.902,-2.902,-2.9033,-2.9033,-2.9034,-2.8988,-2.8987,-2.8985,-2.8984,-2.8996,-2.8998,-2.9,0,0,0,0,0,0,0,0,0,0,0,0,0,-2.8976,-2.8956,-2.902,-2.8999,-2.8998,-2.9033,-2.9033,-2.9034,-2.8989,-2.8987,-2.8985,-2.8983,-2.8995,-2.8998,-2.9,-2.9056,0,0,-2.9007,-2.9008,0,0,0,0,0,0,0,0,-2.8975,-2.8979,-2.9002,-2.9001,-2.8999,-2.9007,-2.9015,-2.9041,-2.8989,-2.8992,-2.8984,-2.8982,-2.9002,-2.9003,-2.901,-2.9056,-2.9057,-2.9008,-2.9009,-2.901,-2.9011,0,0,0,0,0,0,0,-2.8974,-2.8978,-2.9025,-2.9003,-2.9001,-2.8989,-2.899,-2.9019,-2.9008,-2.8992,-2.8988,-2.8991,-2.9,-2.9008,-2.901,-2.9057,-2.9007,-2.901,-2.9011,-2.9012,-2.9149,-2.9152,0,0,0,0,0,0,-2.8975,-2.8977,-2.9025,-2.9026,-2.8982,-2.8992,-2.8993,-2.9006,-2.9008,-2.9006,-2.8992,-2.8989,-2.9005,-2.9007,-2.901,-2.9076,-2.901,-2.9012,-2.9014,-2.9147,-2.915,-2.9152,0,0,0,0,0,0,-2.8974,-2.898,-2.9024,-2.9,-2.9005,-2.8995,-2.9011,-2.9008,-2.9016,-2.9008,-2.9006,-2.9003,-2.9003,-2.9007,-2.9045,-2.9076,-2.9013,-2.9015,-2.9145,-2.9148,-2.9151,-2.9208,0,0,0,0,0,0,-2.8972,-2.898,-2.9001,-2.9001,-2.9007,-2.9059,-2.9013,-2.901,-2.902,-2.9015,-2.9017,-2.9015,-2.9002,-2.9042,-2.9047,-2.9078,-2.9017,-2.9142,-2.9146,-2.915,-2.9203,-2.9213,-2.9221,0,0,0,0,0,-2.897,-2.9016,-2.9002,-2.9008,-2.9033,-2.9061,-2.9064,-2.9048,-2.9023,-2.9044,-2.9039,-2.9015,-2.9071,-2.9046,-2.9052,-2.9084,-2.914,-2.9145,-2.915,-2.9199,-2.9211,-2.9221,0,0,0,0,0,0,-2.9019,-2.9016,-2.9,-2.9048,-2.9055,-2.9053,-2.908,-2.9061,-2.9075,-2.907,-2.9049,-2.905,-2.9091,-2.9091,-2.9063,-2.9138,-2.9101,-2.9108,-2.9137,-2.9148,-2.9156,-2.9156,-2.9019,0,0,0,0,0,-2.9035,-2.9059,-2.9054,-2.9097,-2.9101,-2.909,-2.9101,-2.9088,-2.9095,-2.9097,-2.9095,-2.9102,-2.9121,-2.9134,-2.9151,-2.9203,-2.9203,-2.9228,-2.9236,-2.9244,-2.925,-2.9277,-2.9288,-2.9169,-2.9169,-2.9169,0,0,-2.9069,-2.907,-2.9086,-2.9107,-2.9111,-2.9135,-2.9093,-2.912,-2.9138,-2.9101,-2.9137,-2.9136,-2.9142,-2.9187,-2.9207,-2.9188,-2.9283,-2.925,-2.9256,-2.9258,-2.9284,-2.9295,-2.9305,-2.9172,-2.9172,-2.9171,0,0,-2.9144,-2.9147,-2.9183,-2.9188,-2.9195,-2.9187,-2.9196,-2.9197,-2.9195,-2.9231,-2.9204,-2.9225,-2.9258,-2.9264,-2.9271,-2.9348,-2.9327,-2.9354,-2.94,-2.9427,-2.9437,-2.9445,-2.9473,-2.9483,-2.936,-2.936,-2.936,0,-2.9185,-2.9222,-2.9204,-2.9233,-2.9243,-2.9212,-2.9248,-2.9253,-2.9265,-2.9273,-2.9252,-2.9293,-2.9295,-2.9341,-2.936,-2.9367,-2.9376,-2.9354,-2.9437,-2.9445,-2.9452,-2.9479,-2.949,-2.9363,-2.9363,-2.9362,-2.9362,0,-2.9272,-2.9298,-2.9326,-2.9339,-2.9352,-2.9384,-2.9371,-2.9386,-2.9372,-2.9367,-2.9404,-2.9405,-2.9422,-2.9431,-2.9418,-2.9476,-2.9464,-2.9441,-2.9403,-2.9468,-2.9492,-2.9502,-2.9368,-2.9367,-2.9366,-2.9365,0,0,-2.9379,-2.9382,-2.9393,-2.9398,-2.9404,-2.9423,-2.9454,-2.9471,-2.9485,-2.9494,-2.9519,-2.9548,-2.9526,-2.9535,-2.9521,-2.9545,-2.9607,-2.9518,-2.9518,-2.9535,-2.9671,-2.969,-2.9702,-2.9592,-2.9594,-2.9596,-2.9671,0,-2.9453,-2.9507,-2.9492,-2.9546,-2.9569,-2.954,-2.9567,-2.9573,-2.9568,-2.9587,-2.9582,-2.9603,-2.9572,-2.9577,-2.9599,-2.9595,-2.9634,-2.9589,-2.9616,-2.9617,-2.9616,-2.9715,-2.9734,-2.9805,-2.968,-2.9682,-2.9683,0,-2.9547,-2.956,-2.9617,-2.9619,-2.9628,-2.9653,-2.9668,-2.9686,-2.9692,-2.9687,-2.9697,-2.9678,-2.9708,-2.9671,-2.9712,-2.9682,-2.9692,-2.9691,-2.9694,-2.9696,-2.9655,-2.9721,-2.9828,-2.9839,-2.9698,-2.9697,-2.9696,0,-2.962,-2.9652,-2.969,-2.9696,-2.9699,-2.9717,-2.9719,-2.9723,-2.9734,-2.9747,-2.9754,-2.977,-2.9779,-2.9791,-2.9778,-2.9751,-2.9821,-2.9782,-2.9818,-2.9819,-2.9835,-2.9834,-2.9946,-2.984,-2.984,-2.984,-2.984,0,-2.9704,-2.974,-2.9723,-2.9747,-2.9786,-2.9768,-2.9807,-2.9806,-2.981,-2.9832,-2.9807,-2.9829,-2.9809,-2.9829,-2.9818,-2.9854,-2.9858,-2.9855,-2.9852,-2.9858,-2.9859,-2.9865,-2.986,-2.9843,-2.9842,-2.9842,-2.9841,0,-2.9793,-2.9783,-2.9823,-2.9822,-2.9823,-2.9852,-2.9852,-2.9873,-2.9867,-2.9896,-2.9901,-2.9891,-2.9913,-2.9901,-2.9923,-2.9916,-2.9963,-2.9953,-2.9962,-2.9959,-2.9996,-2.9993,-3.0116,-3.0132,-3.0016,-3.0017,-3.0018,0,-2.9848,-2.9875,-2.9878,-2.9892,-2.9896,-2.9918,-2.993,-2.9913,-2.9926,-2.9935,-2.9955,-2.9975,-2.999,-3.0027,-3.0021,-3.0038,-3.0028,-3.007,-3.0031,-3.0036,-3.003,-3.0029,-3.0032,-3.0079,-3.008,-3.0081,-3.0082,0,-2.9948,-2.9941,-2.996,-2.9977,-2.9991,-3.0004,-3.0013,-3.0026,-3.0009,-3.0025,-3.0047,-3.0059,-3.0082,-3.0102,-3.0117,-3.0118,-3.0098,-3.0094,-3.0104,-3.011,-3.0115,-3.0114,-2.9984,-3.0092,-3.0091,-3.009,-3.009,-3.0089,-3.0022,-3.0045,-3.0051,-3.0072,-3.0078,-3.0088,-3.0108,-3.0104,-3.0123,-3.0141,-3.0129,-3.0156,-3.0161,-3.0179,-3.0183,-3.0203,-3.0186,-3.0199,-3.0203,-3.0207,-3.0212,-3.0111,-3.0205,-3.0205,-3.0205,-3.0204,-3.0204,0,-3.0121,-3.0123,-3.0143,-3.0158,-3.0175,-3.0154,-3.0164,-3.0179,-3.0203,-3.021,-3.0225,-3.0251,-3.027,-3.0266,-3.0284,-3.0301,-3.0292,-3.0306,-3.0305,-3.0306,-3.0226,-3.0216,-3.0313,-3.0313,-3.0313,-3.0313,-3.0313,-3.0313,-3.0174,-3.0212,-3.0207,-3.0247,-3.0249,-3.0275,-3.0283,-3.0292,-3.0297,-3.0327,-3.0344,-3.0341,-3.0343,-3.0361,-3.0378,-3.0376,-3.0384,-3.0402,-3.0397,-3.0322,-3.0311,-3.0301,-3.0292,-3.0403,-3.0403,-3.0475,-3.0476,-3.0476]}]]